Theta_e
316 313 313 323 326 326 329 330 330 332 335 338 337 340 342 340 346 360 351 353 353 350 342 349 350 350 349 344 339 338 339 339 339 338 336 332 323 321 323 322 322 325 328 330 331 332 331 329 326
316 322 322 322 324 328 331 331 331 332 333 336 335 336 339 340 348 351 351 354 356 343 343 347 349 350 348 342 338 336 337 340 339 339 337 333 324 322 324 324 327 330 329 328 326 327 328 330 326
316 326 324 321 321 325 330 332 332 332 332 335 334 335 336 346 347 354 353 356 358 350 344 348 347 348 347 340 337 336 336 338 339 339 337 334 326 323 324 327 330 335 337 333 333 335 333 323 322
322 328 322 321 320 321 323 330 333 334 333 334 334 334 336 346 349 353 353 358 357 354 348 348 349 346 346 339 337 336 336 336 337 338 337 334 327 324 324 327 330 331 334 339 338 329 324 324 322
321 324 323 322 321 321 323 326 329 332 333 333 333 333 337 344 346 350 352 356 362 355 350 350 349 347 346 339 337 336 334 334 334 333 332 331 327 325 323 326 327 328 326 326 326 324 326 327 326
324 323 323 323 322 323 324 323 325 329 331 332 332 333 338 347 347 346 348 353 361 360 356 350 349 348 346 339 337 337 333 330 330 328 328 326 326 325 323 324 326 327 327 328 327 326 325 324 325
324 326 324 323 324 324 325 324 324 325 328 330 331 333 340 346 348 349 350 352 360 359 359 351 348 347 345 338 337 336 333 330 328 326 324 325 325 323 322 324 326 328 326 325 325 325 324 324 324
321 324 324 324 324 324 325 325 325 324 325 326 328 331 334 345 348 349 351 354 359 359 361 349 349 347 343 338 336 335 332 330 328 324 323 323 322 322 321 324 325 326 325 324 324 325 324 324 324
319 322 324 323 323 324 325 326 325 325 325 324 326 328 336 344 345 348 351 355 357 359 360 351 347 347 340 337 336 335 332 330 327 324 322 320 320 320 322 325 326 324 324 325 325 324 323 321 321
318 321 322 322 323 323 324 324 325 326 325 325 324 324 329 340 342 347 350 353 356 358 358 352 348 346 342 339 337 335 333 330 328 325 321 319 327 322 332 328 325 327 324 324 323 322 322 323 337
315 317 317 318 320 322 322 323 323 325 327 324 323 323 324 334 335 340 346 350 355 356 357 354 351 347 343 343 339 335 334 332 330 327 322 323 338 335 341 340 337 324 322 324 330 337 334 340 341
316 316 316 316 316 318 319 320 321 322 324 325 323 323 323 324 329 330 339 346 352 356 357 355 353 348 345 345 345 336 336 335 335 333 324 335 340 341 341 343 342 339 339 335 339 339 340 340 338
316 315 316 316 316 316 316 317 318 320 322 324 323 323 323 323 323 324 334 341 349 355 357 355 355 349 348 348 347 342 342 339 341 341 331 339 341 344 338 341 341 341 338 339 339 340 340 339 343
315 315 315 315 315 316 316 317 317 318 320 323 324 323 322 323 323 324 331 337 342 353 356 356 355 352 351 350 348 347 347 345 346 346 339 343 339 342 335 341 340 340 339 339 343 343 343 346 348
316 316 316 316 315 315 315 317 317 317 318 321 323 323 322 322 322 323 327 330 337 353 351 357 357 354 350 351 348 349 348 347 347 348 347 344 340 342 340 339 338 339 337 339 345 345 345 344 344
316 316 316 316 316 315 314 314 315 317 317 318 320 322 323 323 322 322 324 326 331 344 358 358 358 355 352 355 349 349 349 348 347 347 347 343 339 339 337 338 338 338 337 344 346 347 348 348 348
316 316 316 316 315 316 315 315 316 315 316 318 318 319 321 324 324 323 323 323 326 333 358 358 358 357 354 352 351 351 350 348 347 348 348 342 337 339 329 338 338 337 341 345 346 346 347 346 345
316 316 316 316 316 316 316 316 316 316 316 317 319 319 319 321 325 325 324 324 325 335 359 358 358 355 355 352 352 351 351 348 347 347 347 343 333 333 332 338 345 344 341 344 346 345 345 345 343
318 318 317 316 317 315 315 316 316 316 317 318 318 319 320 320 323 326 325 324 324 332 356 357 355 355 355 353 352 353 351 349 347 346 346 344 333 334 329 340 341 345 346 343 344 344 343 342 335
317 317 317 316 316 316 316 317 316 316 317 317 319 320 319 321 320 322 325 325 323 326 348 352 353 356 354 353 351 354 347 348 347 347 346 342 345 340 335 337 342 342 340 337 339 342 340 337 336
318 317 318 316 317 317 317 318 318 317 316 316 318 318 320 320 322 321 323 328 324 325 342 349 352 354 352 353 350 352 348 348 347 347 345 347 343 336 343 342 344 343 341 340 338 335 333 333 332
318 317 317 316 318 320 318 320 318 318 318 317 318 319 319 321 320 322 322 327 327 325 337 350 356 354 353 353 350 349 349 349 348 348 345 346 349 348 349 345 343 342 339 332 329 331 335 334 337
317 318 317 317 319 320 319 318 317 316 317 317 318 319 319 322 320 322 323 325 326 336 348 346 355 353 353 351 350 349 349 349 349 349 349 348 351 346 344 342 339 334 335 332 335 329 332 335 334
317 318 318 317 318 322 320 318 318 318 317 317 318 319 319 321 322 323 325 325 327 352 347 352 356 354 353 351 349 350 349 350 349 350 348 349 346 343 339 331 330 332 331 329 329 330 333 333 330
318 320 321 321 323 323 318 319 318 317 316 317 319 321 319 320 321 322 324 328 327 355 351 353 355 354 352 344 337 339 345 347 347 342 345 346 342 338 338 335 333 331 327 327 333 333 331 325 318
318 319 321 320 319 321 320 322 318 318 317 316 317 319 320 321 321 322 324 327 344 354 347 349 354 353 349 348 346 340 339 347 339 347 346 342 339 337 335 334 328 327 331 334 332 330 321 315 312
319 320 319 321 321 322 319 317 318 318 317 317 318 319 320 320 321 321 324 327 351 354 350 350 354 352 349 351 349 351 345 343 349 347 345 339 335 332 332 328 332 331 331 332 326 318 314 312 314
315 317 323 322 321 319 317 317 318 318 317 317 318 319 321 321 322 321 324 327 353 348 351 353 354 351 350 349 348 343 348 348 346 343 339 334 329 328 328 329 330 331 330 322 314 314 315 317 316
317 321 319 321 321 321 321 319 319 319 319 321 318 320 323 323 321 322 325 333 352 351 352 353 352 351 352 349 345 347 346 344 341 338 332 328 327 328 327 331 331 329 318 313 315 318 316 315 316
315 318 321 325 323 320 321 323 318 320 321 321 321 321 322 322 322 326 329 352 350 350 352 352 350 351 350 347 345 344 342 340 335 329 327 328 327 328 332 331 327 317 313 315 316 315 315 315 315
Wind_Speed
11 7 5 9 7 8 17 21 21 23 24 14 11 7 7 7 6 7 10 13 13 11 28 26 23 21 19 17 16 14 14 13 12 11 10 10 11 13 14 15 14 13 12 11 9 6 4 2 2
11 7 10 11 9 15 16 21 23 21 24 8 4 5 8 6 20 21 15 17 15 13 30 27 24 21 19 18 16 14 14 14 13 11 10 9 11 13 13 13 13 11 9 8 6 4 3 1 1
11 13 15 6 14 19 18 22 21 22 26 16 4 5 6 8 13 12 17 21 18 12 31 28 24 21 19 18 16 14 14 13 12 11 9 9 10 12 12 12 11 9 8 7 6 3 0 2 2
8 9 12 13 23 22 28 24 26 24 18 15 9 9 7 8 8 14 19 21 17 15 31 27 24 21 19 18 16 15 14 14 12 11 9 9 9 11 12 11 9 7 6 5 3 1 1 1 2
13 12 11 17 25 26 24 27 33 28 27 5 12 15 7 11 13 11 18 18 14 15 28 28 24 21 19 19 17 14 13 13 12 11 9 9 9 11 11 10 7 6 4 3 3 2 2 3 4
16 20 15 19 25 24 23 32 32 24 32 17 15 15 6 15 15 13 15 17 16 18 19 25 25 21 20 19 18 15 14 13 12 10 10 9 9 10 10 9 7 5 4 3 3 4 4 5 6
18 14 21 24 25 25 23 29 23 25 24 22 17 17 14 18 18 17 14 17 17 19 19 21 27 24 21 20 18 16 14 13 12 11 10 9 10 10 11 10 7 6 4 4 5 6 6 7 7
23 15 26 24 21 28 26 31 30 29 31 26 15 17 11 18 17 17 15 19 19 20 17 22 29 26 24 22 20 18 15 13 12 10 9 10 10 11 11 10 7 6 6 6 7 7 7 8 8
22 16 19 26 27 24 25 23 33 27 28 34 26 26 7 16 14 15 16 19 23 21 17 20 29 28 25 24 22 19 17 14 12 11 10 10 11 11 10 9 8 7 7 6 7 7 7 7 7
18 17 25 23 23 22 26 29 30 29 21 20 16 24 16 17 15 16 17 19 22 24 20 20 25 29 25 22 23 21 18 16 14 12 11 11 6 8 3 6 6 7 6 6 5 6 6 6 7
22 21 23 28 31 29 28 29 34 26 24 22 19 25 33 20 16 17 18 20 26 28 24 24 23 26 23 21 22 23 20 18 15 13 12 13 9 7 11 5 7 7 5 5 1 7 5 5 8
18 25 27 28 32 32 26 33 29 30 28 20 20 24 31 34 22 20 20 23 25 27 28 29 23 23 25 25 17 22 21 18 15 13 14 16 13 10 10 6 7 6 3 5 3 7 4 5 12
18 19 23 25 28 30 32 28 27 33 33 26 20 22 28 31 27 25 20 21 28 30 32 34 27 24 28 24 18 20 19 18 15 14 14 16 16 12 13 11 7 6 4 4 4 4 7 11 6
21 24 25 25 24 25 26 28 28 37 33 31 28 28 18 20 23 25 21 24 19 32 36 39 32 27 30 24 15 20 14 13 15 10 14 14 14 13 12 12 15 8 8 8 7 7 7 7 9
22 19 19 20 22 25 25 25 28 37 35 33 31 30 25 21 21 21 24 18 15 26 31 53 36 29 34 22 17 23 21 15 19 14 12 16 14 14 11 9 8 6 6 11 13 12 10 7 12
21 21 20 20 21 25 26 26 27 35 35 35 35 33 30 27 26 21 12 18 19 13 32 21 31 32 31 25 25 23 21 17 19 17 15 19 17 11 16 7 6 7 10 9 7 13 14 11 10
16 17 23 25 23 20 25 29 26 34 35 36 36 35 35 29 33 30 20 18 24 18 33 36 34 32 32 32 27 23 19 20 17 19 13 16 16 12 15 11 10 14 14 16 17 18 16 16 17
18 18 17 17 21 19 18 20 22 28 32 35 34 41 37 36 33 36 32 24 23 18 28 37 35 33 32 34 27 24 22 21 20 18 15 13 15 14 15 13 15 18 19 18 19 19 18 17 21
23 20 23 19 21 21 19 21 25 22 28 29 34 39 39 41 36 32 35 31 25 23 23 30 33 34 33 36 32 26 26 22 20 20 18 13 14 14 17 14 17 17 16 17 17 16 18 19 13
22 20 24 23 22 20 19 25 24 22 24 26 28 33 39 36 42 37 35 39 40 30 29 33 30 34 33 39 34 26 25 25 23 23 21 15 13 12 10 10 11 11 10 11 14 18 16 18 17
22 19 22 24 23 23 22 24 23 22 27 34 32 39 35 41 34 37 43 34 37 39 29 35 34 34 31 39 33 28 24 25 26 24 20 20 16 9 6 14 13 7 5 11 10 9 8 5 6
23 22 23 22 21 18 20 18 22 22 24 24 33 35 37 33 38 37 41 32 39 40 38 36 35 31 35 38 28 29 29 29 27 21 17 13 12 15 14 11 4 6 3 2 7 6 6 9 9
18 16 18 20 19 20 28 13 18 19 24 25 25 33 43 31 36 30 41 37 36 41 42 39 37 33 39 36 28 27 28 28 24 22 22 21 17 12 9 4 5 6 4 7 6 5 5 6 8
20 15 21 20 18 17 27 19 21 20 25 24 24 38 39 33 28 28 28 39 40 43 42 39 42 39 46 41 39 27 25 29 32 25 23 18 16 10 8 10 10 9 6 6 5 5 6 9 11
13 17 10 7 9 16 18 11 18 23 25 29 24 35 35 29 31 33 30 34 39 41 40 38 42 43 49 39 32 38 25 29 28 21 22 19 16 13 12 12 8 6 8 4 5 8 11 11 13
15 12 10 11 11 12 5 9 9 26 23 31 32 35 35 34 34 38 35 33 43 41 40 42 46 47 45 39 42 39 41 38 27 24 23 20 20 17 14 11 10 9 5 4 6 7 9 11 12
7 10 19 19 17 15 17 26 17 19 18 23 24 31 42 45 46 48 40 35 46 45 44 47 48 48 47 44 48 41 35 30 30 31 25 23 20 18 15 13 8 6 4 4 6 7 9 10 9
20 19 5 8 7 15 16 11 8 13 9 17 22 23 41 47 48 49 43 37 54 47 47 46 49 49 49 48 46 37 36 34 34 31 23 23 21 18 17 10 7 4 4 4 5 6 9 11 12
12 11 12 9 8 7 13 6 9 16 14 16 16 26 24 42 49 45 41 37 51 47 46 53 50 51 48 44 43 44 38 33 26 27 25 23 19 18 14 9 5 4 5 7 9 10 9 10 11
21 17 16 5 6 12 10 5 10 16 17 12 23 30 23 43 44 40 37 42 50 47 52 57 54 50 48 46 46 40 38 30 30 28 25 22 22 18 13 9 7 8 10 9 9 10 11 11 12
Wind_Direction
229 228 214 263 239 227 245 246 243 262 277 235 283 296 344 7 66 142 142 129 174 159 164 163 163 161 160 160 161 164 170 169 164 157 145 139 135 137 135 133 134 133 138 143 147 149 149 114 86
203 230 235 264 236 241 243 238 250 247 255 277 281 299 296 0 94 125 125 138 180 134 166 166 167 163 162 161 163 165 172 175 171 168 158 148 145 146 143 139 136 136 144 151 155 155 161 141 19
208 201 239 224 239 238 247 250 246 238 260 219 184 261 271 53 58 96 135 144 179 164 169 169 166 164 163 164 165 164 170 174 176 176 169 156 154 154 151 149 143 138 142 147 156 162 216 349 1
194 225 239 253 247 233 241 259 268 278 225 205 180 249 131 82 81 126 133 151 171 170 176 169 168 165 166 165 168 168 169 175 180 180 178 168 162 162 163 160 156 153 151 157 164 150 20 332 314
224 232 231 242 245 252 262 238 252 270 277 251 188 231 187 129 131 129 144 157 152 159 176 172 171 167 168 167 170 171 169 175 182 181 181 179 173 174 173 171 173 170 160 164 186 215 261 286 296
222 231 245 239 248 253 242 257 265 257 261 257 252 241 205 139 136 147 158 158 156 156 178 174 174 169 171 171 173 175 174 175 180 180 184 183 187 182 178 183 186 186 182 191 216 242 268 282 290
244 231 239 249 259 261 245 241 240 261 265 254 224 250 182 158 146 145 154 156 157 163 188 180 177 173 174 175 178 182 181 179 180 182 185 186 190 185 186 191 193 205 212 232 254 267 279 284 292
230 252 255 248 251 257 264 273 240 232 254 255 239 250 266 125 135 136 147 157 157 165 189 179 180 174 177 181 181 185 186 184 181 182 183 188 189 186 190 195 206 227 246 260 269 278 283 289 303
240 243 249 249 256 262 265 268 274 270 232 244 225 250 219 134 142 142 153 158 157 165 180 181 181 177 181 185 183 187 188 186 181 182 182 184 188 187 190 200 214 237 258 268 279 291 302 314 326
234 247 246 253 265 268 270 274 274 275 260 237 228 240 241 151 162 155 166 167 170 172 171 177 181 178 178 191 186 188 190 188 185 186 179 175 173 191 174 222 247 256 262 274 291 317 322 343 32
238 245 257 264 268 268 278 284 291 283 276 227 221 242 253 191 182 187 181 182 178 173 171 176 186 178 170 198 187 191 189 190 187 189 178 158 175 167 197 254 273 265 267 317 287 0 7 26 11
249 257 259 265 268 277 280 286 289 288 284 273 237 220 245 249 205 188 205 188 181 176 174 182 184 174 166 195 196 189 188 189 188 190 175 148 181 210 181 254 322 336 349 353 346 331 320 314 270
266 270 268 267 270 271 272 274 277 282 284 289 260 262 229 251 243 233 208 209 185 181 176 184 182 172 172 192 202 195 191 189 184 193 177 166 179 207 193 190 199 263 214 310 300 253 240 289 318
281 286 286 281 277 265 265 264 264 266 273 279 280 279 255 250 247 220 198 225 205 185 179 183 180 170 169 188 187 179 183 177 172 198 183 177 177 217 206 190 202 197 215 203 253 268 260 288 310
280 268 269 264 261 267 269 265 250 256 263 268 272 273 259 261 247 250 202 215 214 184 190 174 171 172 170 184 178 179 180 179 175 190 204 184 169 218 182 202 203 202 225 216 222 227 260 252 245
271 271 268 262 256 246 244 252 254 251 247 255 260 265 261 248 254 250 216 196 219 191 179 181 177 178 187 178 173 177 185 183 173 190 209 184 182 209 183 175 207 194 224 255 251 244 229 242 243
248 252 256 260 253 243 238 239 244 249 249 238 249 257 256 249 248 254 251 224 201 221 184 183 186 191 195 181 183 175 190 176 175 186 208 182 187 201 171 172 224 214 209 224 236 241 238 243 250
260 256 259 285 290 298 303 285 248 242 239 243 237 236 245 249 235 239 244 232 208 211 194 192 194 203 197 187 179 176 182 174 177 180 205 200 187 194 178 182 214 216 227 233 248 258 263 262 261
291 284 280 270 254 270 283 291 286 280 236 233 229 242 229 229 236 233 229 231 212 206 194 191 195 197 194 187 178 181 182 172 175 184 199 205 191 196 186 194 237 237 243 249 259 271 274 267 284
280 285 281 279 278 276 255 248 263 269 270 260 236 234 241 219 223 231 236 217 205 203 205 206 197 194 199 186 175 180 175 175 171 190 199 202 192 203 196 185 249 261 272 268 268 271 284 293 296
270 264 272 285 290 289 279 272 261 268 260 264 254 243 238 233 213 216 229 204 197 198 197 203 198 194 196 186 176 180 174 170 178 194 196 182 192 188 174 195 214 258 212 283 312 324 343 353 357
246 250 265 275 283 273 281 274 275 273 245 242 254 231 241 225 226 208 221 215 193 197 200 196 194 190 191 182 180 177 173 170 186 194 176 175 174 182 197 201 221 265 262 62 61 60 41 358 12
285 293 283 282 269 279 263 257 265 247 243 258 235 254 226 229 213 221 204 212 204 185 190 191 197 195 188 179 177 175 173 174 179 169 171 179 179 190 180 190 179 146 113 95 99 91 5 356 353
268 267 262 267 265 259 256 258 258 250 258 242 223 240 221 221 221 231 210 204 186 178 188 189 192 190 179 173 166 163 183 181 179 175 178 172 180 162 143 141 118 99 112 106 79 4 350 349 341
300 248 266 256 233 252 258 275 270 269 242 257 219 229 220 217 217 229 227 193 176 170 181 183 191 190 178 183 180 175 182 197 184 179 177 166 157 143 147 142 140 127 125 98 33 13 346 349 344
233 264 244 264 264 287 209 225 237 241 245 243 245 226 208 208 221 228 225 201 177 175 184 186 188 182 181 173 173 174 176 189 174 169 181 166 161 158 149 133 122 111 105 60 3 353 344 349 356
289 264 261 276 272 267 271 276 231 292 234 234 252 241 211 208 207 222 222 202 170 181 186 192 183 182 174 170 177 180 179 162 160 179 174 159 158 145 138 130 125 108 68 17 3 355 356 360 14
266 269 260 217 272 268 266 313 305 299 268 250 239 255 216 198 196 212 211 196 169 183 186 183 181 176 173 176 177 159 165 166 170 173 158 157 141 136 142 133 119 87 56 35 15 5 21 20 18
277 271 236 259 249 272 290 284 308 330 316 327 275 283 201 180 196 204 198 184 170 177 178 178 178 172 169 168 156 166 159 163 168 170 155 141 134 137 137 132 108 92 74 54 54 31 32 26 25
256 247 253 233 263 257 275 251 340 332 326 301 308 249 276 184 196 182 183 162 165 171 171 172 173 165 162 153 165 157 157 160 173 159 142 136 134 133 131 120 102 79 64 64 50 45 35 33 37